Location: Unspecified
(0.0000°N, 0.0000°E)
Time: 07:17:08
(UTC+00:00)

LES 2 - Pass Details

Date: 12 October 2025
Orbit: 2783 x 14792 km, 32.1° (Epoch: 30 October)

Event Time Altitude Azimuth Distance (km) Brightness Sun altitude
Rises 22:21:24 0° 297° (WNW) 8,326 ? -67.5°
Reaches altitude 10° 22:27:02 10° 294° (WNW) 6,565 ? -68.8°
Enters shadow 22:33:33 28° 285° (WNW) 4,585 ? -70.3°
Exits shadow 22:58:31 10° 133° (SE) 6,650 ? -75.8°
Sets 23:04:02 0° 129° (SE) 8,363 ? -76.9°
